Location: Baggettsville
(36.4767°N, 86.7303°W)
Time: 02:05:11
(UTC+00:00)

Envisat - Pass Details

Date: 17 September 2021
Orbit: 764 x 766 km, 98.2° (Epoch: 15 October)

Event Time Altitude Azimuth Distance (km) Brightness Sun altitude
Rises 10:37:26 0° 17° (NNE) 3,236 6.6 -11.5°
Reaches altitude 10° 10:39:48 10° 21° (NNE) 2,306 5.9 -11.1°
Maximum altitude 10:44:48 58° 100° (E) 893 3.7 -10.1°
Drops below altitude 10° 10:49:46 10° 179° (S) 2,290 5.4 -9.1°
Sets 10:52:05 0° 184° (S) 3,212 6.1 -8.6°
